[Iaude] MPEC D95: 2024 DM1 [a=1.61,e=0.38,i=7.8,H=27.0]

mpec at cfa.harvard.edu mpec at cfa.harvard.edu
Wed Feb 21 00:07:47 EST 2024


M.P.E.C. 2024-D95                             Issued 2024 February 21, 05:06 UT

     The Minor Planet Electronic Circulars contain information on unusual
         minor planets, routine data on comets and natural satellites,
         and occasional editorial announcements.  They are published
    on behalf of Division F of the International Astronomical Union by the
          Minor Planet Center, Smithsonian Astrophysical Observatory,
                          Cambridge, MA 02138, U.S.A.
			  
             Prepared using the Tamkin Foundation Computer Network

                              MPC at CFA.HARVARD.EDU
            URL https://www.minorplanetcenter.net/    ISSN 1523-6714

                                    2024 DM1                                    


Observations:
     K24D01M 1C2024 02 18.35189 12 51 13.28 +27 58 36.6          20.6 GVED095G96
     K24D01M 1C2024 02 18.36210 12 51 24.82 +27 54 16.8          20.6 GVED095G96
     K24D01M 1C2024 02 18.36720 12 51 30.58 +27 52 07.5          20.5 GVED095G96
     K24D01M*1C2024 02 19.47789213 14 47.450+19 04 53.72         20.66GVED095G96
     K24D01M 1C2024 02 19.48301813 14 53.279+19 02 15.29         20.19GVED095G96
     K24D01M 1C2024 02 19.48815013 14 59.104+18 59 38.00         20.86GVED095G96
     K24D01M 1C2024 02 19.54869913 16 09.167+18 27 50.54         20.60GVED095G96
     K24D01M 1C2024 02 19.54925113 16 09.808+18 27 32.33         20.81GVED095G96
     K24D01M 1C2024 02 19.54980213 16 10.452+18 27 15.05         20.08GVED095G96
     K24D01M 1C2024 02 19.60701413 17 31.768+17 58 53.95         20.43GVED095T12
     K24D01M 1C2024 02 19.60887413 17 33.878+17 57 54.90         20.09GVED095T12
     K24D01M 1C2024 02 19.61145413 17 36.817+17 56 32.68         20.56GVED095T12
     K24D01M 3C2024 02 20.44105013 35 29.033+10 18 28.87         19.7 GVED095G96
     K24D01M 3C2024 02 20.44218113 35 30.307+10 17 50.53         19.7 GVED095G96
     K24D01M 3C2024 02 20.44322713 35 31.510+10 17 14.78         19.8 GVED095G96

Observer details:
G96 Mt. Lemmon Survey.  Observers T. Beuden, G. J. Leonard, D. Rankin.
    Measurers B. Gray, D. Rankin, F. C. Shelly, T. Beuden, V. F. Carvajal, D.
    Fay, J. B. Fazekas, D. C. Fuls, A. R. Gibbs, A. D. Grauer, H. Groeller, J.
    K. Hogan, R. A. Kowalski, S. M. Larson, G. J. Leonard, R. L. Seaman, K. W.
    Wierzchos, D. Parrott.  1.5-m reflector + 10K CCD, 1.50-m f/1.6 1.5-m
    reflector + CCD.
T12 University of Hawaii 88-inch telescope, Maunakea.  Observer Y.
    Ramanjooloo.  Measurers R. Weryk, Y. Ramanjooloo, J. Fairlamb, R.
    Wainscoat.  2.24-m f/10.1 reflector + CCD.

Orbital elements:
2024 DM1                                                 Earth MOID = 0.0083 AU
Epoch 2024 Mar. 31.0 TT = JDT 2460400.5                 MPC                     
M  11.51397              (2000.0)            P               Q                  
n   0.48464722     Peri.  195.39387     -0.98456533     -0.16531715             
a   1.6051621      Node   334.87167     +0.17144472     -0.84501664             
e   0.3838467      Incl.    7.77632     +0.03518259     -0.50854411             
P   2.03           H   27.05          G   0.15           U   7                  
Residuals in seconds of arc
240218 G96  0.3+  0.5+    240219 G96 (0.8-  2.9+)   240219 T12  0.1+  0.0
240218 G96  0.1-  0.4-    240219 G96  0.4-  0.9+    240219 T12  0.3+  0.4-
240218 G96  0.2-  0.1-    240219 G96  0.4-  0.1+    240220 G96  0.1+  0.2-
240219 G96 (0.5+  1.5-)   240219 G96  0.4-  0.3+    240220 G96  0.1-  0.1+
240219 G96  0.0   0.1-    240219 T12  0.0   0.0     240220 G96  0.0   0.1+

Ephemeris:
2024 DM1                 a,e,i = 1.61, 0.38, 8                   q = 0.9890
Date    TT    R. A. (2000) Decl.     Delta      r    Elong.  Phase     V
2024 01 22    08 51 51.3 +56 44 22   0.1376  1.0964   142.5    33.1    24.3
...
2024 02 06    09 56 39.7 +56 42 25   0.07027 1.0396   138.5    39.0    22.9
...
2024 02 14    11 28 59.9 +47 46 13   0.03851 1.0170   139.6    39.0    21.6
...
2024 02 20    13 26 00.1 +14 28 21   0.02297 1.0041   132.3    46.8    20.6
2024 02 21    13 47 19.2 +04 58 26   0.02237 1.0024   126.9    52.0    20.7
2024 02 22    14 08 16.6 -04 43 01   0.02261 1.0007   120.7    58.2    20.9
...
2024 02 28    15 53 27.1 -42 01 59   0.03670 0.9930    93.0    84.8    22.8
...
2024 03 07    17 13 49.4 -54 42 19   0.06658 0.9890    85.2    90.9    24.4
...
2024 03 22    18 19 02.7 -59 31 42   0.1240  1.0015    88.8    84.1    25.5

A. U. Tomatic                (C) Copyright 2024 MPC           M.P.E.C. 2024-D95





More information about the Iaude mailing list